| time (UTC) | temp F | wind direction | speed MPH | gust MPH | rain 1hr in | rain 24hr in | rain mn in | humidity % | barometer mb |
| 20260507044545 | 57 | 146 | 5.0 | 8.0 | 0.00 | 0.62 | 0.00 | 93 | 1012.5 |
| 20260507043041 | 57 | 167 | 5.0 | 10.0 | 0.00 | 0.62 | 0.00 | 93 | 1012.3 |
| 20260507041538 | 57 | 166 | 5.0 | 9.0 | 0.00 | 0.62 | 0.00 | 93 | 1012.3 |
| 20260507040049 | 56 | 175 | 5.0 | 7.0 | 0.00 | 0.62 | 0.00 | 93 | 1012.1 |
| 20260507034547 | 56 | 137 | 4.0 | 9.0 | 0.00 | 0.62 | 0.00 | 93 | 1012.0 |
| 20260507033044 | 57 | 161 | 5.0 | 12.0 | 0.00 | 0.62 | 0.00 | 93 | 1011.9 |
| 20260507031542 | 57 | 183 | 4.0 | 9.0 | 0.00 | 0.62 | 0.00 | 93 | 1012.1 |
| 20260507030047 | 57 | 209 | 3.0 | 9.0 | 0.00 | 0.62 | 0.00 | 93 | 1012.1 |
| 20260507024545 | 57 | 181 | 3.0 | 10.0 | 0.00 | 0.62 | 0.00 | 93 | 1012.0 |
| 20260507023037 | 57 | 183 | 1.0 | 9.0 | 0.00 | 0.62 | 0.00 | 93 | 1012.0 |
| 20260507021619 | 57 | 204 | 2.0 | 10.0 | 0.00 | 0.62 | 0.00 | 93 | 1012.1 |
| 20260507020040 | 57 | 195 | 2.0 | 12.0 | 0.00 | 0.62 | 0.00 | 92 | 1012.0 |
| 20260507014552 | 57 | 168 | 3.0 | 12.0 | 0.00 | 0.62 | 0.00 | 92 | 1012.1 |
| 20260507013047 | 57 | 330 | 3.0 | 14.0 | 0.00 | 0.62 | 0.00 | 92 | 1012.0 |
| 20260507011545 | 57 | 247 | 4.0 | 13.0 | 0.00 | 0.62 | 0.00 | 92 | 1012.0 |
| 20260507010050 | 57 | 154 | 3.0 | 13.0 | 0.00 | 0.62 | 0.00 | 92 | 1012.1 |
| 20260507004543 | 57 | 268 | 3.0 | 16.0 | 0.00 | 0.62 | 0.00 | 92 | 1011.9 |
| 20260507003039 | 56 | 165 | 3.0 | 11.0 | 0.00 | 0.62 | 0.00 | 92 | 1012.1 |
| 20260507001550 | 57 | 150 | 3.0 | 11.0 | 0.00 | 0.62 | 0.00 | 91 | 1011.9 |
| 20260507000045 | 56 | 146 | 5.0 | 13.0 | 0.00 | 0.62 | 0.00 | 92 | 1012.1 |
| 20260506234544 | 56 | 168 | 7.0 | 15.0 | 0.00 | 0.62 | 0.00 | 91 | 1012.3 |
| 20260506233044 | 56 | 142 | 7.0 | 14.0 | 0.00 | 0.62 | 0.00 | 90 | 1012.4 |
| 20260506231542 | 56 | 166 | 7.0 | 14.0 | 0.00 | 0.62 | 0.00 | 91 | 1012.5 |
| 20260506230040 | 56 | 207 | 9.0 | 14.0 | 0.00 | 0.62 | 0.00 | 91 | 1012.5 |
| 20260506224538 | 56 | 187 | 6.0 | 10.0 | 0.00 | 0.62 | 0.00 | 91 | 1012.6 |
| 20260506223046 | 56 | 145 | 4.0 | 9.0 | 0.00 | 0.62 | 0.00 | 91 | 1012.8 |
| 20260506221545 | 56 | 149 | 3.0 | 8.0 | 0.00 | 0.62 | 0.00 | 91 | 1012.6 |
| 20260506220044 | 56 | 139 | 4.0 | 9.0 | 0.00 | 0.62 | 0.00 | 91 | 1012.4 |
| 20260506214545 | 55 | 168 | 6.0 | 12.0 | 0.00 | 0.62 | 0.62 | 90 | 1012.4 |
| 20260506213040 | 55 | 208 | 7.0 | 12.0 | 0.00 | 0.62 | 0.62 | 90 | 1012.1 |
| 20260506211538 | 55 | 162 | 6.0 | 10.0 | 0.00 | 0.62 | 0.62 | 90 | 1012.3 |
| 20260506210050 | 55 | 222 | 6.0 | 11.0 | 0.00 | 0.62 | 0.62 | 91 | 1012.2 |
| 20260506204544 | 56 | 153 | 5.0 | 13.0 | 0.00 | 0.62 | 0.62 | 91 | 1012.3 |
| 20260506203050 | 56 | 170 | 5.0 | 11.0 | 0.00 | 0.62 | 0.62 | 91 | 1012.2 |
| 20260506201600 | 57 | 203 | 6.0 | 18.0 | 0.00 | 0.62 | 0.62 | 91 | 1012.1 |
| 20260506200048 | 57 | 164 | 6.0 | 18.0 | 0.00 | 0.62 | 0.62 | 91 | 1012.1 |
| 20260506194548 | 56 | 185 | 6.0 | 14.0 | 0.00 | 0.62 | 0.62 | 92 | 1012.0 |
| 20260506193050 | 57 | 190 | 4.0 | 20.0 | 0.00 | 0.62 | 0.62 | 92 | 1011.8 |
| 20260506191544 | 57 | 191 | 7.0 | 17.0 | 0.00 | 0.62 | 0.62 | 92 | 1011.5 |
| 20260506190043 | 58 | 157 | 7.0 | 21.0 | 0.00 | 0.62 | 0.62 | 92 | 1011.2 |
| 20260506184549 | 58 | 137 | 7.0 | 15.0 | 0.00 | 0.62 | 0.62 | 92 | 1011.0 |
| 20260506183040 | 58 | 189 | 4.0 | 17.0 | 0.01 | 0.62 | 0.62 | 92 | 1011.1 |
| 20260506181540 | 58 | 183 | 4.0 | 15.0 | 0.02 | 0.62 | 0.62 | 92 | 1011.2 |
| 20260506180045 | 58 | 177 | 5.0 | 14.0 | 0.03 | 0.62 | 0.62 | 92 | 1011.1 |
| 20260506174542 | 58 | 123 | 5.0 | 12.0 | 0.05 | 0.62 | 0.62 | 92 | 1011.0 |
| 20260506173059 | 59 | 210 | 5.0 | 14.0 | 0.04 | 0.61 | 0.61 | 91 | 1010.8 |
| 20260506171551 | 59 | 148 | 6.0 | 22.0 | 0.03 | 0.60 | 0.60 | 91 | 1011.0 |
| 20260506170040 | 59 | 237 | 14.0 | 23.0 | 0.01 | 0.58 | 0.58 | 89 | 1010.6 |
| 20260506164544 | 60 | 155 | 9.0 | 20.0 | 0.00 | 0.56 | 0.56 | 88 | 1009.7 |
| 20260506163059 | 61 | 176 | 5.0 | 18.0 | 0.00 | 0.56 | 0.56 | 87 | 1010.4 |
| 20260506161545 | 61 | 145 | 7.0 | 14.0 | 0.00 | 0.56 | 0.56 | 87 | 1010.6 |
| 20260506160043 | 62 | 236 | 5.0 | 14.0 | 0.00 | 0.56 | 0.56 | 87 | 1010.6 |
| 20260506154550 | 63 | 184 | 8.0 | 20.0 | 0.00 | 0.56 | 0.56 | 86 | 1010.6 |
| 20260506153041 | 62 | 137 | 8.0 | 13.0 | 0.00 | 0.56 | 0.56 | 89 | 1010.9 |
| 20260506151544 | 62 | 214 | 5.0 | 14.0 | 0.00 | 0.56 | 0.56 | 91 | 1011.1 |
| 20260506150044 | 61 | 188 | 4.0 | 13.0 | 0.00 | 0.56 | 0.56 | 92 | 1011.3 |
| 20260506144545 | 61 | 183 | 5.0 | 13.0 | 0.00 | 0.59 | 0.56 | 92 | 1011.4 |
| 20260506143042 | 60 | 214 | 2.0 | 9.0 | 0.00 | 0.59 | 0.56 | 93 | 1011.4 |
| 20260506141542 | 59 | 150 | 5.0 | 10.0 | 0.00 | 0.59 | 0.56 | 93 | 1011.5 |
| 20260506140047 | 59 | 173 | 5.0 | 9.0 | 0.00 | 0.59 | 0.56 | 93 | 1011.6 |
| 20260506134537 | 59 | 135 | 4.0 | 9.0 | 0.00 | 0.59 | 0.56 | 93 | 1011.8 |
| 20260506133045 | 58 | 0 | 4.0 | 7.0 | 0.00 | 0.59 | 0.56 | 93 | 1011.8 |
| 20260506131544 | 58 | 143 | 3.0 | 7.0 | 0.00 | 0.59 | 0.56 | 93 | 1012.0 |
| 20260506130043 | 58 | 167 | 3.0 | 8.0 | 0.01 | 0.59 | 0.56 | 93 | 1012.2 |
| 20260506124542 | 57 | 177 | 2.0 | 9.0 | 0.01 | 0.59 | 0.56 | 93 | 1012.2 |
| 20260506123038 | 57 | 153 | 5.0 | 15.0 | 0.01 | 0.59 | 0.56 | 93 | 1012.1 |
| 20260506121538 | 57 | 236 | 14.0 | 25.0 | 0.00 | 0.59 | 0.55 | 93 | 1012.3 |
| 20260506120050 | 57 | 43 | 5.0 | 16.0 | 0.00 | 0.58 | 0.55 | 93 | 1012.1 |
| 20260506114550 | 57 | 317 | 5.0 | 16.0 | 0.00 | 0.59 | 0.55 | 93 | 1012.0 |
| 20260506113043 | 57 | 191 | 6.0 | 14.0 | 0.00 | 0.59 | 0.55 | 93 | 1012.1 |
| 20260506111543 | 57 | 142 | 4.0 | 13.0 | 0.00 | 0.59 | 0.55 | 93 | 1012.3 |
| 20260506110038 | 57 | 128 | 5.0 | 21.0 | 0.02 | 0.59 | 0.55 | 93 | 1012.3 |
| 20260506104547 | 57 | 131 | 8.0 | 22.0 | 0.05 | 0.60 | 0.55 | 93 | 1012.3 |
| 20260506103044 | 57 | 146 | 6.0 | 17.0 | 0.07 | 0.60 | 0.55 | 94 | 1012.4 |
| 20260506101544 | 57 | 205 | 7.0 | 17.0 | 0.11 | 0.60 | 0.55 | 94 | 1012.7 |
| 20260506100043 | 56 | 131 | 9.0 | 16.0 | 0.12 | 0.58 | 0.52 | 94 | 1012.7 |
| 20260506094546 | 55 | 143 | 6.0 | 20.0 | 0.12 | 0.55 | 0.49 | 94 | 1012.7 |
| 20260506093105 | 55 | 207 | 8.0 | 19.0 | 0.14 | 0.52 | 0.47 | 94 | 1012.8 |
| 20260506091547 | 55 | 206 | 6.0 | 15.0 | 0.14 | 0.48 | 0.43 | 94 | 1012.6 |
| 20260506090051 | 56 | 172 | 9.0 | 19.0 | 0.14 | 0.45 | 0.40 | 94 | 1012.5 |
| 20260506084544 | 56 | 158 | 9.0 | 16.0 | 0.14 | 0.41 | 0.36 | 94 | 1012.4 |
| 20260506083044 | 56 | 150 | 9.0 | 14.0 | 0.14 | 0.38 | 0.33 | 93 | 1012.6 |
| 20260506081540 | 56 | 199 | 3.0 | 12.0 | 0.14 | 0.34 | 0.29 | 93 | 1012.7 |
| 20260506073044 | 56 | 224 | 4.0 | 14.0 | 0.17 | 0.23 | 0.18 | 93 | 1012.5 |
| 20260506071544 | 57 | 192 | 2.0 | 12.0 | 0.14 | 0.20 | 0.14 | 92 | 1012.4 |
| 20260506061552 | 57 | 199 | 6.0 | 14.0 | 0.00 | 0.05 | 0.00 | 90 | 1012.4 |